Dewpoint
-2 -12 -13 -13 -13 -14 -15 -16 -17 -17 -18 -18 -19 -19 -19 -20 -20 -20 -21 -22 -24 -24 -23 -19 -14 -12 -9 -9 -8 -5 -4 -5 -9 -9 -9 -8 -6 -5 -2 -1 -1 -0 -2 -0 -1 -0 0
-11 -12 -13 -14 -15 -16 -16 -16 -17 -17 -17 -17 -17 -17 -17 -18 -17 -17 -17 -18 -20 -22 -22 -19 -13 -12 -10 -10 -6 -4 -2 -4 -8 -8 -7 -5 -4 -3 -2 1 0 0 1 2 1 0 0
-12 -13 -15 -15 -16 -16 -16 -16 -16 -16 -16 -16 -17 -17 -17 -18 -18 -18 -18 -18 -19 -20 -21 -17 -14 -10 -9 -10 -5 -4 -5 -7 -8 -7 -6 -5 -3 -4 -0 0 2 2 1 0 -0 -0 -0
-13 -14 -15 -15 -15 -16 -15 -15 -15 -15 -15 -16 -16 -16 -16 -16 -17 -16 -16 -17 -19 -21 -19 -16 -11 -9 -10 -8 -6 -6 -5 -5 -6 -4 -4 -4 -3 -3 -0 1 0 2 1 0 -5 1 -1
-12 -14 -14 -14 -15 -15 -15 -16 -16 -17 -18 -18 -18 -19 -19 -20 -20 -20 -17 -14 -16 -18 -16 -8 -8 -8 -8 -4 -4 -5 -4 -5 -3 -3 -2 -1 -0 2 4 -0 -4 -3 -4 -1 -2 -2 -2
-12 -12 -12 -13 -13 -15 -16 -17 -19 -21 -21 -22 -25 -28 -29 -28 -23 -21 -20 -14 -16 -16 -6 -7 -8 -9 -7 -5 -5 -3 -4 -4 -1 -2 -1 2 3 2 2 -3 -5 -9 -0 0 -1 -6 -1
-8 -9 -11 -13 -15 -16 -18 -20 -23 -26 -30 -32 -32 -33 -34 -34 -34 -29 -21 -14 -15 -13 -14 -13 -11 -11 -9 -5 -3 -2 -1 -0 -0 -1 -4 3 1 -0 -1 0 -5 -5 -4 -4 -4 -7 -2
-6 -9 -14 -16 -18 -19 -22 -25 -28 -31 -33 -34 -34 -35 -35 -35 -35 -30 -14 -13 -8 -6 -5 -9 -3 -3 -4 -3 -3 -3 -2 -2 -1 -3 1 -1 1 -2 -2 -2 1 2 2 1 -1 -4 -4
-9 -15 -19 -19 -20 -24 -27 -30 -33 -34 -35 -35 -34 -34 -34 -34 -31 -12 -14 -9 -8 -6 -2 -8 -1 -3 -3 -3 -3 -3 -2 -1 -0 1 1 -1 -5 -2 -2 -3 -1 -0 -0 -1 -2 -5 -4
-16 -21 -22 -26 -27 -29 -32 -34 -34 -35 -34 -34 -33 -32 -32 -33 -14 -26 -10 -7 -8 -0 -5 -9 -2 -2 -2 -3 -3 -3 -2 -1 -1 0 -1 1 -1 -1 -2 -2 -3 -1 -4 -4 -3 -2 -1
-22 -25 -29 -32 -33 -34 -35 -35 -35 -34 -32 -31 -30 -29 -28 -28 -28 -19 -10 -9 -6 -0 -6 -10 -3 -3 -2 -3 -2 -1 -1 -0 -0 -1 -2 -3 -5 -4 -1 -2 -3 -2 -5 -4 -4 -2 -1
-26 -30 -32 -33 -35 -35 -35 -35 -33 -32 -30 -29 -29 -28 -24 -22 -21 -16 -10 -7 -0 -3 -10 -5 -3 -3 -6 -3 -2 -0 0 -1 -1 -0 -1 -1 -2 -3 -3 -4 -3 -5 -4 -3 -1 -1 1
-29 -31 -33 -34 -35 -35 -34 -33 -31 -29 -29 -29 -29 -26 -21 -20 -18 -26 -13 -3 -5 -5 -10 -4 -4 -5 -5 -7 -3 -0 -0 -1 -1 -2 -3 -4 -3 -3 -3 -2 -4 -3 -2 2 1 2 2
-30 -32 -33 -35 -35 -34 -33 -31 -30 -29 -28 -29 -29 -20 -17 -16 -18 -21 -7 -12 -14 -10 -3 -3 -3 -4 -8 -7 -6 -6 0 0 -2 -2 -1 0 0 -3 -3 -3 -4 -2 -1 2 3 0 -4
-30 -32 -34 -34 -34 -34 -32 -30 -29 -29 -29 -30 -28 -18 -14 -14 -16 -9 -6 -7 -8 -3 -2 -1 -5 -9 -10 -8 -8 -11 -5 -2 -3 -2 0 0 0 -4 -3 -4 -4 -2 -0 -3 -1 -3 -0
-27 -32 -34 -35 -34 -33 -32 -31 -30 -32 -32 -32 -28 -14 -11 -13 -11 -5 -9 -5 -2 -2 -2 -3 -3 -5 -4 -4 -7 -9 -10 -4 -3 -2 -2 -3 -0 -4 -5 -4 -4 -3 -4 -0 0 2 2
-28 -31 -34 -34 -34 -33 -32 -33 -32 -33 -34 -34 -23 -10 -9 -14 -9 -11 -9 -4 -1 -2 -3 -3 -2 -2 -2 -1 -1 -3 -8 -5 -7 -7 -5 -2 -2 -3 -5 -3 -4 -3 -0 -1 -2 -1 1
-28 -31 -34 -34 -34 -34 -34 -34 -35 -35 -36 -31 -21 -12 -10 -14 -5 -3 -2 -3 -5 -5 -6 -2 -2 -1 -1 -1 -1 -1 -1 -5 -9 -8 -5 -5 0 1 -1 -5 -6 -6 -3 -2 0 -0 -0
-28 -32 -34 -35 -35 -35 -36 -36 -37 -37 -36 -33 -14 -9 -13 -10 -7 -7 -10 -8 -6 -5 -8 -6 -3 -5 -5 -2 -2 -1 -4 -7 -9 -9 -7 -3 -2 -0 -3 -7 -5 -3 -4 -3 -2 -2 -1
-28 -33 -33 -33 -35 -36 -37 -37 -37 -37 -36 -27 -14 -11 -15 -12 -9 -10 -10 -5 -6 -8 -9 -8 -8 -9 -8 -7 -4 -4 -7 -8 -10 -10 -10 -9 -3 -2 -1 -1 -6 -5 -5 -2 1 3 2
-30 -32 -26 -33 -36 -37 -37 -38 -38 -37 -34 -27 -15 -6 -8 -8 -8 -8 -8 -7 -7 -7 -8 -9 -8 -9 -8 -6 -7 -7 -8 -9 -10 -10 -10 -10 -7 -9 -10 -10 -10 -9 -9 -10 -7 -2 2
-27 -28 -25 -28 -31 -35 -37 -38 -38 -37 -31 -30 -15 -10 -8 -7 -9 -9 -7 -7 -7 -7 -8 -7 -8 -9 -10 -7 -9 -6 -8 -9 -8 -10 -9 -9 -6 -7 -6 -9 -10 -10 -11 -11 -7 -4 -1
-27 -26 -25 -27 -29 -30 -30 -35 -35 -34 -33 -25 -14 -11 -12 -7 -9 -8 -7 -8 -7 -7 -9 -9 -9 -9 -8 -8 -8 -9 -8 -8 -9 -8 -8 -8 -7 -6 -6 -10 -9 -8 -4 -4 -4 -3 -3
-21 -22 -25 -25 -24 -26 -24 -21 -21 -24 -25 -25 -17 -14 -13 -8 -9 -8 -7 -8 -7 -7 -8 -9 -10 -8 -9 -9 -9 -9 -9 -9 -9 -9 -9 -6 -5 -5 -5 -7 -5 -4 -5 -4 -5 -6 -6
-20 -22 -23 -21 -20 -21 -17 -16 -20 -20 -23 -26 -20 -19 -14 -7 -8 -7 -8 -7 -7 -9 -8 -8 -9 -9 -8 -8 -8 -8 -10 -12 -11 -10 -7 -6 -6 -5 -4 -5 -5 -7 -6 -5 -5 -7 -8
-23 -21 -18 -17 -17 -18 -14 -16 -19 -21 -21 -20 -15 -15 -14 -9 -8 -9 -8 -7 -8 -8 -9 -8 -9 -8 -7 -8 -6 -6 -6 -9 -9 -9 -10 -12 -7 -6 -7 -7 -4 -8 -9 -11 -7 -6 -10
-20 -20 -18 -18 -17 -10 -6 -9 -16 -19 -15 -13 -12 -13 -12 -12 -9 -8 -9 -9 -7 -7 -7 -7 -8 -7 -7 -5 -6 -6 -6 -8 -7 -6 -8 -9 -9 -7 -7 -7 -6 -10 -12 -13 -7 -9 -11
-20 -20 -19 -21 -17 -14 -7 -7 -15 -9 -7 -10 -11 -11 -9 -8 -8 -8 -8 -8 -7 -6 -8 -8 -8 -8 -7 -6 -6 -6 -7 -7 -7 -8 -9 -8 -7 -8 -8 -9 -8 -11 -13 -11 -12 -14 -14
-19 -17 -19 -19 -15 -16 -13 -10 -11 -6 -6 -8 -8 -9 -9 -6 -7 -7 -7 -7 -7 -7 -6 -6 -7 -6 -6 -8 -8 -5 -6 -8 -8 -6 -11 -7 -10 -8 -8 -8 -11 -11 -11 -14 -13 -14 -14
Wind_Speed
2 3 5 7 7 8 9 9 10 11 11 12 13 13 13 14 14 15 15 16 16 16 17 15 13 11 7 3 2 3 4 4 4 5 4 3 1 2 2 1 2 1 3 4 7 9 9
3 4 5 6 7 8 9 10 10 11 12 13 13 14 14 14 15 16 16 16 17 18 17 15 13 8 3 1 3 3 4 4 4 5 5 4 2 2 2 0 1 3 6 13 11 11 6
2 4 5 6 7 8 9 10 11 12 13 14 14 15 15 16 16 17 16 17 17 17 17 14 12 6 5 4 3 2 3 4 5 5 4 4 3 1 1 1 1 3 6 7 6 4 5
3 4 6 7 9 10 11 11 13 14 15 15 16 16 16 17 17 17 16 17 16 17 16 12 9 3 1 3 3 4 5 5 4 3 3 3 3 1 1 2 3 3 3 4 1 4 3
4 5 6 8 9 11 12 13 14 14 15 16 16 16 16 16 17 17 16 16 17 15 12 7 4 3 0 1 1 2 4 4 3 2 3 3 2 2 2 3 4 5 3 3 9 6 2
5 6 7 9 10 11 12 13 14 15 16 16 16 16 16 17 16 16 16 15 13 10 5 3 2 2 0 0 1 2 2 3 2 3 2 1 2 3 3 3 4 4 3 4 6 1 0
7 9 10 11 12 13 13 14 14 14 14 15 16 16 17 17 16 15 12 10 6 3 3 5 9 6 6 5 2 2 2 2 3 2 1 3 2 7 8 7 2 1 3 5 5 4 3
8 9 10 10 12 13 14 13 13 14 14 15 16 16 16 16 14 11 9 4 4 5 7 5 5 4 4 3 2 2 2 1 1 1 1 4 6 4 3 3 4 3 2 7 6 3 5
8 8 10 12 11 12 13 13 13 14 14 15 16 16 15 14 11 7 8 6 6 8 2 4 5 4 4 2 1 2 3 0 1 1 3 5 2 2 2 3 3 4 5 4 8 3 4
8 9 10 11 11 11 11 10 11 13 15 16 16 16 15 14 5 8 4 6 6 6 5 5 4 3 3 2 1 1 4 1 1 2 2 5 4 3 1 4 6 3 9 6 3 2 5
8 10 11 11 10 10 10 11 12 12 14 15 15 15 14 11 8 5 5 4 4 2 4 3 3 4 5 2 4 1 4 1 3 1 3 7 3 2 3 7 6 8 4 4 3 4 2
7 10 10 10 9 8 9 10 11 12 13 14 14 13 12 10 7 6 4 3 1 6 4 4 3 4 5 1 1 1 0 3 3 2 3 7 4 4 7 5 8 1 1 5 4 3 2
7 7 9 8 7 7 9 10 11 12 13 13 12 11 11 10 7 5 2 1 5 5 4 5 4 5 2 4 3 2 3 4 1 6 3 5 5 3 3 2 1 2 5 3 3 1 7
7 6 7 6 7 7 9 10 11 13 14 13 11 9 9 10 8 3 1 5 4 3 2 3 4 6 2 6 3 5 2 4 4 1 3 3 8 4 3 5 4 5 7 5 6 4 9
6 6 5 5 6 8 10 11 12 13 13 12 10 6 7 9 5 1 0 4 3 1 2 6 6 3 4 3 4 6 1 4 4 6 2 4 6 3 4 3 5 3 5 5 3 1 2
6 4 3 4 6 7 10 12 13 13 13 12 8 3 7 7 4 2 4 3 1 2 4 2 2 3 2 5 6 6 1 5 7 7 6 5 8 4 3 1 5 5 2 0 1 3 9
4 4 3 4 7 9 10 11 12 13 13 11 5 0 7 6 3 3 4 1 2 5 9 5 3 4 3 4 4 3 4 5 7 10 12 7 2 10 4 5 10 3 4 4 2 4 10
2 3 4 5 7 10 11 12 13 13 12 9 3 2 8 3 4 4 3 3 7 9 13 6 3 3 3 5 3 3 4 5 14 11 7 4 5 6 11 15 11 6 6 6 5 6 4
2 2 4 5 7 10 12 14 14 12 11 9 1 2 6 1 3 2 3 4 7 7 6 6 6 6 4 2 3 2 4 7 20 10 10 6 4 6 8 8 4 3 4 3 2 2 6
1 2 5 7 9 11 12 13 13 12 9 5 1 2 8 12 8 4 2 3 3 8 4 4 5 5 4 5 4 5 5 5 24 14 23 6 5 10 13 15 14 16 23 16 11 4 3
0 3 7 9 10 12 12 13 12 10 7 1 4 3 3 3 6 6 4 2 3 5 5 10 3 6 4 3 4 4 4 10 6 17 3 7 9 11 17 19 19 20 20 22 19 15 8
2 4 8 11 12 13 14 13 12 9 4 2 4 4 7 4 3 4 5 2 2 3 3 3 3 5 2 4 4 10 5 4 5 4 2 2 10 15 22 25 20 21 21 18 15 12 6
4 6 8 10 12 13 15 16 16 14 6 6 7 8 4 3 3 3 1 1 3 2 1 0 2 1 4 5 14 24 24 25 17 8 3 3 3 6 7 12 12 11 8 5 6 6 3
5 6 8 9 11 12 14 17 19 20 20 13 11 6 4 2 3 3 2 2 1 1 2 8 7 1 4 21 24 19 19 21 16 12 14 3 3 4 5 4 2 3 10 8 14 15 17
5 5 6 8 10 11 12 15 16 17 17 15 15 6 4 3 7 4 3 2 3 5 1 4 3 9 13 9 3 6 4 4 0 4 6 7 2 4 5 8 2 7 10 8 7 7 15
5 5 6 8 10 9 11 12 13 14 14 13 16 13 6 9 3 5 3 2 1 3 6 3 7 9 6 1 2 2 2 2 4 7 4 3 3 1 3 5 5 3 16 30 14 3 20
6 5 6 6 7 8 10 10 10 12 12 12 13 12 7 5 3 4 2 2 2 1 2 6 8 5 6 2 2 1 3 1 2 2 4 4 3 2 5 3 2 10 26 21 5 6 26
6 5 4 5 5 4 5 8 8 10 10 10 9 8 8 3 2 4 5 4 2 2 1 5 5 2 3 1 1 2 1 3 1 3 4 1 3 2 3 3 3 24 8 6 7 19 20
6 4 4 4 3 2 2 5 5 7 8 9 7 6 6 3 1 5 8 10 6 6 8 3 2 3 3 1 2 2 3 1 3 2 4 1 3 3 2 2 6 5 9 9 12 19 21
Wind_Direction
300 343 7 4 4 3 357 354 352 350 349 348 349 346 343 341 341 339 338 338 335 332 331 332 327 323 315 319 297 246 238 285 305 322 341 358 70 134 180 210 323 204 319 286 275 275 268
334 6 6 359 355 353 351 347 344 343 342 341 340 337 335 332 329 330 333 334 333 329 329 325 321 316 298 297 253 249 245 272 297 324 351 12 45 16 94 226 176 313 290 280 287 273 236
353 351 345 345 340 341 343 339 337 336 335 335 332 330 328 324 323 323 325 324 326 324 320 319 320 316 290 283 234 236 249 275 300 321 345 358 352 334 167 158 307 315 328 314 229 238 229
333 335 338 336 335 333 334 333 330 330 331 331 329 327 325 322 320 319 320 319 321 318 313 315 317 307 294 273 262 250 257 277 286 313 332 343 338 337 333 336 13 15 52 353 318 163 200
317 325 331 328 326 330 332 332 329 329 331 331 328 328 326 324 324 325 323 322 321 316 317 326 315 310 343 348 246 256 251 259 272 301 323 320 319 110 74 85 1 9 245 225 314 205 140
312 320 324 325 326 327 330 330 330 332 334 331 331 331 326 322 317 321 325 328 321 318 334 354 3 334 341 74 314 312 255 225 272 305 304 355 69 77 46 96 233 250 244 241 250 331 215
328 332 331 329 327 330 331 332 333 334 337 339 337 337 334 333 325 322 325 333 336 314 339 295 298 273 284 282 257 294 238 234 273 320 325 15 31 221 216 205 177 188 209 253 256 251 236
325 324 325 326 328 330 331 333 336 342 343 343 341 339 337 336 332 328 339 15 32 321 312 342 352 348 285 226 323 294 215 215 84 285 346 360 245 234 190 183 204 186 256 260 283 248 185
321 323 322 325 329 330 333 339 345 345 344 345 344 344 343 341 334 347 4 29 8 355 316 349 22 23 19 212 319 1 205 116 167 238 210 203 249 74 154 239 198 188 207 228 237 339 251
311 315 319 325 327 332 335 344 347 346 346 346 347 348 347 346 351 346 7 6 358 2 62 317 359 24 5 16 43 262 194 204 237 246 199 237 300 275 249 264 170 250 225 239 266 64 261
318 321 328 331 331 338 345 347 348 349 349 348 348 349 350 351 341 354 349 347 347 31 26 318 4 1 359 33 317 350 210 227 241 238 102 254 261 253 224 223 167 238 150 188 183 184 357
313 322 332 333 342 347 346 346 349 350 349 348 347 347 354 355 0 346 346 347 8 44 263 354 344 359 10 300 312 338 296 244 274 294 233 243 288 251 222 221 194 113 108 55 49 103 257
304 324 330 340 348 348 346 346 346 348 347 346 342 342 356 3 357 352 344 13 37 120 294 331 328 359 352 306 0 36 10 335 259 343 324 322 235 257 204 236 127 134 71 321 325 2 232
311 324 335 342 348 344 345 347 346 344 343 342 342 341 2 4 3 11 40 51 83 286 348 340 322 320 351 14 11 351 6 318 28 6 316 260 318 191 179 214 203 184 169 171 223 241 281
310 327 340 343 344 344 345 345 345 340 340 339 338 333 356 1 2 36 97 61 196 194 275 331 322 15 331 10 22 24 29 348 28 4 286 308 266 312 230 229 157 197 183 195 199 151 82
303 319 337 338 342 344 345 344 341 338 339 338 333 323 1 358 22 53 72 138 118 22 342 354 278 40 295 323 356 18 314 353 339 8 343 300 297 218 328 332 252 186 193 169 356 232 254
302 318 329 345 344 344 341 344 341 341 342 337 326 231 358 345 11 51 104 146 66 37 17 7 338 324 2 346 340 303 309 23 358 339 37 4 289 285 340 220 263 299 257 235 191 182 253
274 315 337 347 349 342 342 349 351 346 341 339 329 40 351 354 35 41 76 5 11 2 20 8 69 61 15 4 314 277 360 85 34 18 16 320 289 273 270 281 271 219 244 209 226 258 232
250 329 344 343 350 351 351 354 354 352 346 345 33 25 11 98 98 40 14 53 55 17 26 15 26 49 2 353 321 311 355 168 21 27 13 337 308 310 295 310 14 339 12 34 319 255 231
268 343 1 4 4 4 358 357 355 353 354 355 79 38 37 59 70 101 82 23 46 32 58 37 33 60 24 1 11 307 323 346 342 341 322 303 236 258 281 292 317 299 306 315 303 233 254
196 22 24 17 9 9 14 9 4 357 354 37 64 82 66 25 37 75 79 30 35 8 20 22 75 59 2 306 292 244 321 324 318 304 23 340 280 296 291 295 302 293 290 295 284 290 270
120 49 37 33 29 19 20 30 21 14 12 64 91 126 96 83 78 66 16 40 78 332 332 16 35 337 258 241 238 299 271 233 249 293 315 263 284 286 281 278 270 283 288 280 273 280 287
94 66 48 41 34 27 24 33 41 43 56 80 90 107 123 37 83 101 87 129 98 279 250 1 331 288 288 270 312 294 283 276 261 287 304 239 256 290 270 294 288 277 338 284 94 17 306
100 74 57 45 39 31 37 40 47 52 60 82 91 103 101 84 82 101 118 113 41 334 273 311 334 195 294 308 303 291 273 267 271 262 208 228 236 254 287 317 273 72 10 15 65 35 25
105 76 60 46 45 42 43 44 51 54 57 62 66 79 93 105 117 122 119 114 283 319 277 268 293 313 309 317 329 326 337 3 306 213 209 232 281 303 321 311 229 3 347 346 350 59 25
113 95 62 53 50 49 40 39 51 58 57 65 64 59 79 119 217 131 120 84 19 348 341 262 318 336 351 316 318 277 292 306 325 329 231 272 180 185 314 338 346 346 318 320 302 129 10
127 98 69 50 49 52 48 42 42 56 65 63 55 47 61 85 128 153 123 142 111 49 279 304 335 332 2 17 283 296 286 249 293 292 305 315 343 222 302 269 133 346 323 321 50 325 332
128 98 69 46 45 58 58 40 41 47 47 46 48 31 40 69 188 212 220 180 174 201 201 299 336 312 346 3 261 302 211 263 278 250 292 308 317 313 313 321 292 358 5 46 315 317 323
122 94 59 42 45 64 68 36 61 37 20 30 41 13 357 51 282 269 258 252 231 272 277 261 266 280 283 7 250 289 282 295 223 272 19 93 355 299 2 346 22 1 70 354 335 321 324
Height
1539 1538 1538 1538 1537 1535 1534 1533 1531 1530 1528 1526 1524 1522 1520 1518 1516 1514 1512 1510 1507 1505 1503 1500 1499 1497 1497 1498 1498 1497 1497 1497 1497 1497 1496 1495 1494 1495 1497 1497 1497 1498 1496 1494 1493 1493 1492
1540 1539 1538 1537 1536 1535 1533 1532 1531 1529 1527 1525 1523 1521 1519 1517 1515 1512 1510 1508 1506 1504 1501 1499 1497 1496 1496 1498 1496 1496 1497 1497 1497 1497 1496 1495 1495 1496 1496 1496 1498 1497 1495 1492 1490 1489 1489
1539 1539 1538 1537 1535 1534 1533 1531 1530 1528 1526 1524 1522 1519 1517 1515 1513 1510 1508 1506 1504 1502 1499 1497 1496 1495 1496 1498 1495 1496 1496 1496 1496 1496 1497 1496 1496 1496 1495 1496 1497 1497 1497 1491 1486 1486 1487
1539 1538 1537 1536 1535 1533 1532 1530 1529 1527 1525 1522 1520 1517 1515 1512 1510 1508 1505 1503 1501 1499 1497 1495 1494 1494 1494 1495 1495 1495 1496 1496 1496 1495 1495 1495 1495 1496 1496 1498 1497 1498 1499 1499 1486 1486 1486
1539 1538 1536 1535 1534 1532 1531 1529 1527 1525 1523 1520 1518 1516 1513 1511 1508 1505 1503 1501 1498 1496 1495 1494 1494 1494 1494 1495 1495 1494 1495 1495 1495 1495 1494 1494 1494 1494 1496 1499 1503 1504 1503 1501 1494 1484 1485
1538 1537 1536 1534 1533 1531 1529 1527 1526 1523 1521 1519 1516 1514 1511 1508 1505 1503 1500 1498 1496 1494 1494 1493 1493 1497 1496 1495 1494 1494 1495 1495 1496 1495 1495 1494 1494 1496 1500 1502 1507 1499 1502 1501 1499 1486 1487
1538 1537 1536 1534 1532 1530 1529 1526 1524 1522 1520 1517 1514 1512 1509 1506 1504 1501 1499 1498 1499 1496 1494 1494 1494 1494 1494 1494 1494 1494 1494 1495 1495 1496 1496 1495 1499 1499 1493 1494 1492 1493 1498 1498 1491 1484 1486
1537 1536 1535 1533 1531 1529 1527 1525 1523 1520 1518 1516 1513 1511 1508 1504 1501 1499 1498 1497 1499 1502 1496 1493 1493 1493 1493 1494 1494 1495 1496 1497 1495 1497 1497 1499 1498 1488 1488 1490 1493 1496 1497 1497 1488 1483 1486
1535 1534 1533 1532 1530 1528 1526 1524 1521 1519 1517 1514 1512 1509 1506 1504 1501 1499 1498 1498 1499 1498 1498 1495 1494 1494 1494 1495 1494 1495 1496 1496 1497 1498 1498 1499 1488 1488 1488 1488 1492 1495 1494 1491 1488 1484 1483
1534 1533 1532 1530 1528 1526 1524 1522 1520 1518 1516 1513 1511 1508 1505 1503 1503 1499 1498 1499 1498 1497 1505 1499 1495 1495 1495 1494 1495 1494 1494 1496 1495 1496 1497 1498 1489 1488 1488 1489 1489 1492 1483 1482 1485 1489 1495
1533 1532 1530 1529 1526 1524 1523 1522 1520 1517 1515 1512 1509 1507 1505 1501 1501 1500 1501 1499 1498 1499 1533 1500 1497 1498 1495 1497 1497 1495 1495 1495 1495 1494 1497 1491 1486 1485 1486 1482 1483 1482 1479 1482 1483 1490 1490
1531 1531 1529 1527 1526 1524 1523 1520 1518 1516 1513 1511 1508 1507 1504 1502 1500 1500 1499 1499 1500 1514 1531 1502 1499 1498 1498 1495 1495 1495 1496 1496 1495 1494 1493 1490 1484 1484 1478 1474 1476 1475 1477 1484 1492 1496 1504
1529 1528 1528 1526 1525 1524 1522 1520 1518 1515 1513 1510 1508 1506 1504 1502 1501 1499 1499 1500 1516 1528 1506 1507 1505 1501 1502 1499 1496 1496 1497 1497 1498 1501 1494 1489 1482 1475 1475 1476 1476 1476 1486 1503 1501 1506 1489
1530 1527 1526 1525 1524 1522 1521 1519 1516 1514 1512 1510 1507 1505 1504 1502 1501 1500 1500 1503 1518 1514 1512 1510 1506 1503 1500 1500 1497 1498 1499 1503 1498 1499 1503 1501 1490 1474 1472 1472 1472 1480 1483 1496 1486 1495 1472
1529 1527 1525 1524 1523 1522 1520 1518 1516 1513 1511 1508 1506 1504 1503 1502 1500 1501 1502 1525 1520 1514 1514 1513 1508 1505 1505 1503 1503 1500 1500 1506 1505 1503 1502 1498 1487 1473 1472 1470 1470 1474 1480 1470 1474 1480 1497
1530 1527 1524 1523 1522 1521 1519 1517 1514 1513 1510 1507 1505 1504 1503 1502 1501 1502 1505 1515 1514 1515 1515 1514 1512 1510 1509 1511 1507 1505 1502 1518 1514 1511 1510 1502 1497 1473 1470 1468 1467 1469 1467 1476 1482 1476 1472
1528 1528 1524 1522 1521 1519 1518 1516 1513 1511 1508 1506 1504 1503 1504 1502 1502 1502 1516 1518 1515 1516 1517 1518 1516 1515 1516 1518 1518 1513 1508 1524 1517 1513 1509 1510 1505 1478 1474 1473 1470 1472 1471 1467 1468 1471 1456
1526 1528 1524 1522 1520 1519 1517 1514 1512 1509 1507 1506 1504 1505 1504 1503 1506 1512 1517 1519 1520 1519 1518 1518 1517 1519 1522 1522 1519 1515 1514 1520 1521 1519 1522 1517 1512 1499 1481 1469 1468 1466 1465 1464 1465 1458 1463
1525 1525 1524 1521 1519 1517 1516 1513 1511 1509 1507 1504 1504 1505 1505 1503 1513 1520 1520 1521 1523 1522 1523 1522 1523 1524 1524 1523 1525 1518 1520 1520 1520 1521 1523 1521 1510 1500 1479 1472 1467 1467 1464 1466 1466 1463 1457
1525 1523 1523 1520 1518 1517 1515 1512 1510 1508 1506 1505 1505 1509 1507 1506 1514 1518 1522 1526 1525 1526 1527 1527 1528 1526 1527 1528 1525 1523 1522 1520 1520 1520 1519 1518 1511 1508 1498 1489 1495 1491 1478 1476 1470 1459 1458
1524 1522 1523 1520 1518 1516 1515 1513 1511 1507 1505 1506 1506 1513 1515 1522 1521 1522 1524 1528 1529 1530 1529 1529 1531 1533 1534 1533 1530 1526 1523 1522 1520 1517 1517 1521 1516 1512 1503 1498 1496 1488 1480 1471 1468 1464 1453
1523 1522 1522 1520 1518 1515 1514 1513 1510 1507 1506 1505 1507 1512 1517 1521 1522 1524 1527 1533 1532 1533 1532 1531 1533 1534 1533 1533 1530 1529 1526 1526 1522 1517 1517 1517 1512 1507 1503 1490 1486 1480 1473 1464 1457 1455 1464
1522 1522 1522 1520 1518 1517 1516 1514 1511 1508 1505 1505 1508 1511 1513 1523 1524 1526 1532 1532 1533 1533 1531 1531 1532 1533 1532 1529 1527 1523 1520 1516 1518 1519 1518 1517 1510 1504 1493 1481 1481 1480 1477 1465 1467 1470 1465
1523 1522 1521 1521 1519 1520 1518 1516 1514 1511 1509 1509 1509 1511 1513 1525 1525 1527 1530 1532 1533 1534 1533 1530 1530 1530 1529 1526 1521 1514 1512 1510 1510 1509 1512 1513 1510 1500 1493 1486 1490 1486 1483 1478 1480 1483 1480
1523 1523 1522 1522 1521 1521 1520 1519 1517 1516 1515 1513 1512 1512 1515 1523 1524 1528 1529 1531 1532 1532 1533 1531 1529 1529 1526 1524 1522 1517 1513 1509 1506 1507 1509 1510 1511 1502 1495 1488 1482 1488 1486 1486 1482 1490 1492
1522 1523 1523 1523 1523 1523 1522 1521 1520 1520 1519 1518 1516 1515 1516 1520 1526 1526 1528 1531 1532 1532 1532 1529 1528 1526 1525 1524 1522 1521 1516 1512 1512 1510 1505 1505 1506 1510 1499 1496 1480 1504 1493 1483 1477 1485 1496
1522 1522 1523 1525 1524 1524 1524 1524 1523 1522 1522 1521 1520 1520 1519 1521 1525 1527 1528 1531 1532 1533 1535 1531 1528 1526 1525 1525 1522 1520 1520 1517 1517 1519 1511 1510 1511 1513 1503 1499 1497 1507 1495 1481 1489 1503 1498
1523 1523 1524 1525 1525 1526 1526 1526 1525 1524 1524 1523 1523 1522 1522 1523 1525 1526 1527 1529 1531 1533 1535 1532 1531 1529 1527 1527 1525 1524 1526 1519 1518 1514 1512 1513 1516 1515 1512 1516 1508 1507 1497 1502 1513 1505 1502
1523 1523 1525 1525 1526 1527 1527 1528 1527 1526 1526 1524 1524 1523 1522 1524 1525 1526 1526 1527 1528 1531 1531 1531 1531 1529 1527 1529 1527 1521 1519 1517 1516 1514 1513 1514 1524 1518 1517 1512 1516 1514 1513 1514 1511 1506 1500